Orbital Elements at Epoch 2459200.5 (2020-Dec-17.0) TDB
Reference: JPL 29 (heliocentric ecliptic J2000)
Element | Value | Uncertainty (1-sigma) | Units |
e | .07168524864590589 | 3.6793e-08 | |
a | 2.996342393985999 | 1.4743e-08 | au |
q | 2.781548844444844 | 1.1288e-07 | au |
i | 4.155018586338934 | 3.9954e-06 | deg |
node | 196.7967535579117 | 4.8617e-05 | deg |
peri | 227.4354003271584 | 5.6309e-05 | deg |
M | 358.3456711420593 | 2.6852e-05 | deg |
tp | 2459209.205724715300 (2020-Dec-25.70572472) | 0.00014129 | TDB |
period | 1894.460634271461 5.19 | 1.3982e-05 3.828e-08 | d yr |
n | .1900277015460089 | 1.4025e-09 | deg/d |
Q | 3.211135943527154 | 1.58e-08 | au |
|
| | Orbit Determination Parameters
Additional Information
|